Regional Weather Roundup
Issued by NWS Sterling, VA

Home | Current Version | Previous Version | Graphics & Text | Print | Product List | Glossary On
Versions: 1 2 3 4 5 6 7 8 9 10 11 12 13 14 15 16 17 18 19 20 21 22 23 24 25 26 27 28 29 30 31 32 33 34 35 36 37 38 39 40 41 42 43 44 45 46 47 48 49 50
000
ASUS41 KLWX 270310
RWRLWX

REGIONAL WEATHER ROUNDUP
NATIONAL WEATHER SERVICE BALTIMORE MD/WASHINGTON DC
1100 PM EDT SUN APR 26 2015

Note: "FAIR" indicates few or no clouds below 12,000 feet
with no significant weather and/or obstructions to visibility.
 TC=TEMPERATURE CELSIUS

 * =Non NWS site. Station does not report precipitation (e.g. rain,
    snow, etc.), thunder, or fog.

DCZ001-MDZ009-015-VAZ040>042-051-053>054-270400-
WASHINGTON METRO

CITY           SKY/WX    TMP DP  RH WIND       PRES   REMARKS
WASHINGTON NAT PTCLDY    56  37  49 CALM      29.73S
DULLES         MOCLDY    45  37  73 CALM      29.73R
ANDREWS AFB    CLEAR     48  35  61 S2        29.72S
FT BELVOIR     PTCLDY    44  37  77 CALM      29.73S
QUANTICO       CLEAR     48  39  71 NW9       29.74R
COLLEGE PARK*  CLEAR     45  36  70 CALM      29.73R
LEESBURG*      CLOUDY    46  39  76 CALM      29.74S
MANASSAS*      CLOUDY    45  43  93 CALM      29.74R
GAITHERSBURG*  PTCLDY    45  32  61 CALM      29.77R

$$

MDZ006>007-011-014-270400-
BALTIMORE METRO

CITY           SKY/WX    TMP DP  RH WIND       PRES   REMARKS
BWI AIRPORT    PTCLDY    47  32  56 CALM      29.72R
MD SCIENCE CTR   N/A     57  28  33 MISG      29.73R
MARTIN STATE   CLEAR     50  37  62 CALM      29.74R
ANNAPOLIS      CLEAR     50  40  68 CALM      29.72R
FORT MEADE*    CLEAR     41  36  81 CALM      29.74S

$$

MDZ012-015-019>023-270400-
MARYLAND EASTERN SHORE

CITY           SKY/WX    TMP DP  RH WIND       PRES   REMARKS
OCEAN CITY     CLEAR     40  38  93 CALM      29.73F
SALISBURY      CLEAR     42  38  85 CALM      29.73S
BAY BRIDGE AP*   N/A    N/A N/A N/A CALM      29.72S
CAMBRIDGE*     FAIR      48  39  71 CALM      29.73S
EASTON*        FAIR      50  40  68 S5        29.76S

$$

MDZ017>025-270400-
SOUTHERN MARYLAND

CITY           SKY/WX    TMP DP  RH WIND       PRES   REMARKS
PATUXENT RIVER CLEAR     43  38  82 SW6       29.73R
ST INIGOES     CLEAR     44  40  85 CALM      29.73R
LEONARDTOWN*   CLEAR     45  37  76 CALM      29.74S

$$

MDZ003>005-270400-
NORTH CENTRAL MARYLAND

CITY           SKY/WX    TMP DP  RH WIND       PRES   REMARKS
FREDERICK*     PTCLDY    45  36  70 CALM      29.77R
HAGERSTOWN APT MOCLDY    53  30  41 N8        29.74R
WESTMINSTER*   PTCLDY    48  34  57 NE3       29.74R

$$

MDZ501>502-270400-
WESTERN MARYLAND

CITY           SKY/WX    TMP DP  RH WIND       PRES   REMARKS
OAKLAND*       CLEAR     41  32  70 NW6       29.78S
CUMBERLAND*    CLEAR     55  28  35 NW10G17   29.80R

$$

VAZ025>031-270400-
SHENANDOAH VALLEY

CITY           SKY/WX    TMP DP  RH WIND       PRES   REMARKS
WINCHESTER*    CLOUDY    52  30  43 CALM      29.74S
FRONT ROYAL*   CLOUDY    50  36  57 CALM      29.73S
LURAY*         CLOUDY    50  45  81 CALM      29.75R
NEW MARKET*    CLOUDY    54  32  43 N3        29.74S
STAUNTON*      MOCLDY    47  39  73 S3        29.77R
WAYNESBORO*    CLOUDY    48  41  76 SW5       29.76R

$$

WVZ021-048>050-054>055-270400-
EASTERN WEST VIRGINIA PANHANDLE

CITY           SKY/WX    TMP DP  RH WIND       PRES   REMARKS
MARTINSBURG    MOCLDY    50  35  56 W3        29.74R
PETERSBURG*    MOCLDY    43  33  67 CALM      29.78R

$$

VAZ036>039-050-270400-
CENTRAL FOOTHILLS

CITY           SKY/WX    TMP DP  RH WIND       PRES   REMARKS
CHARLOTTESVILL PTCLDY    49  39  68 CALM      29.75R
CULPEPER*      PTCLDY    43  39  87 CALM      29.75R
ORANGE*        PTCLDY    43  41  93 CALM      29.76S
GORDONSVILLE*  FAIR      40  38  92 CALM      29.75R
WARRENTON*     MOCLDY    41  40  96 CALM      29.74R

$$

VAZ055>057-270400-
NORTH AND CENTRAL PIEDMONT

CITY           SKY/WX    TMP DP  RH WIND       PRES   REMARKS
FREDERICKSBRG* CLEAR     47  41  81 CALM      29.73S
STAFFORD*      CLEAR     39  32  75 NW5       29.77S

$$

NCZ024-NYZ072-PAZ021-071-VAZ022-071-270400-
OTHER REGIONAL OBSERVATIONS

CITY           SKY/WX    TMP DP  RH WIND       PRES   REMARKS
NEW YORK CITY  CLEAR     53  27  36 NW6       29.71S
PHILADELPHIA   MOCLDY    52  35  52 SW3       29.74R
PITTSBURGH     PTCLDY    46  30  53 NW9       29.83S
ROANOKE        PTCLDY    48  43  82 NW6       29.80S
RICHMOND       PTCLDY    48  41  76 S5        29.75R
RALEIGH        MOCLDY    48  46  93 CALM      29.78S

$$

ANZ530>537-270400-
MARINE OBSERVATIONS

STATION/POSITION TIME  TEMP    WIND        PRES
                       AIR SEA DIR/SP/G
                 (UTC) (F)     (DEG/KT/KT) (MB)
THOMAS PT LIGHT  0300   53 53  260/  4/  4 1007.1R
BALT KEY BRIDGE  0200   57      CALM  /  1 1005.9R
COVE POINT       0200   54     260/  3/  4 1006.9R
LEWISETTA        0200   52 58              1006.4R
SOLOMONS ISLAND  0200      56                N/A
PINEY POINT      0200           CALM  /  1   N/A

$$




USA.gov is the U.S. government's official web portal to all federal, state and local government web resources and services.